Regional Weather Roundup
Issued by NWS Goodland, KS

Home | Current Version | Previous Version | Graphics & Text | Print | Product List | Glossary On
Versions: 1 2 3 4 5 6 7 8 9 10 11 12 13 14 15 16 17 18 19 20 21 22 23 24 25 26 27 28 29 30 31 32 33 34 35 36 37 38 39 40 41 42 43 44 45 46 47 48 49 50
000
ASUS43 KGLD 010759
RWRGLD

GOODLAND FORECAST AREA HOURLY WEATHER ROUNDUP
NATIONAL WEATHER SERVICE GOODLAND KS
100 AM MST SUN MAR 01 2015

...OFFICIAL OBSERVATIONS...

CITY           SKY/WX    TMP DP  RH WIND       PRES   REMARKS
GOODLAND KS    CLOUDY    19  17  92 S8        30.14R
HILL CITY KS   CLOUDY    20  15  81 E3        30.25F
IMPERIAL NEB     N/A     18  11  74 SE5       30.16R
MCCOOK NEB     CLOUDY    21  15  78 S5        30.21R
AKRON CO       PTCLDY    15  13  91 SE3       30.04S
BURLINGTON CO  CLOUDY    20  14  77 SW8       30.10R
LIMON CO       PTCLDY     4   1  88 N3        30.02R
$$

...UNOFFICIAL OBSERVATIONS...

CITY           SKY/WX    TMP DP  RH WIND       PRES   REMARKS
COLBY KS       CLOUDY    21  21 100 S5        30.18R
GOVE KS          N/A     18  32 100 MISG        N/A
LENORA KS        N/A     18  32 100 CALM        N/A
NORTON KS      PTCLDY    18  12  79 SE6       30.22S
SHARON SPRINGS   N/A     20  18  91 S5          N/A
KIT CARSON CO    N/A     19  15  83 MISG        N/A
YUMA CO          N/A     17  13  82 CALM        N/A
$$



USA.gov is the U.S. government's official web portal to all federal, state and local government web resources and services.